Home   Weather   Stockport   Past weeks

Flag for United Kingdom Past Weather in Stockport, England, United Kingdom — Yesterday and Last 2 Weeks

Now
30 °F

Chilly.


Feels Like: 25 °F
Forecast: 36 / 52 °F
Wind: 5 mph from South

Location: Manchester Airport

Current Time: Apr 27, 2017 at 4:53:45 am

Latest Report: Apr 27, 2017 at 3:50 am


Visibility: N/A

Pressure: 30.12 "Hg

Humidity: 93%

Dew Point: 28 °F

Location of StockportLocation

Past Weather in Stockport — Graph

°F

Stockport Temperature Yesterday

Maximum temperature yesterday: 50 °F (at 3:20 pm)
Minimum temperature yesterday: 36 °F (at 2:50 am)
Average temperature yesterday: 42 °F

High & Low Weather Summary for the Past Weeks

 TemperatureHumidityPressure
High55 °F (Apr 14, 2:20 pm)100% (Apr 14, 9:50 am)30.63 "Hg (Apr 14, 9:50 am)
Low30 °F (Apr 25, 5:20 am)37% (Apr 24, 6:20 pm)29.89 "Hg (Apr 14, 5:20 pm)
Average47 °F74%30.22 "Hg
* Reported Apr 12 3:20 am — Apr 27 3:20 am, Stockport, Weather by CustomWeather, © 2017

Note: Actual official high and low records may vary slightly from our data, if they occured in-between our weather recording intervals... More about our weather records

Advertising

Stockport Weather History for the Previous 24 Hours

Scroll right to see more
 ConditionsComfort  
Time TempWeatherWind HumidityBarometerVisibility
3:20 am
Thu, Apr 27
32 °FChilly.5 mph87%30.12 "HgN/A
2:20 am34 °FChilly.5 mph93%30.12 "HgN/A
1:50 am32 °FChilly.3 mph87%30.12 "HgN/A
1:20 am32 °FChilly.2 mph87%30.12 "HgN/A
12:50 am34 °FChilly.1 mph87%30.15 "HgN/A
12:20 am36 °FChilly.1 mph81%30.15 "HgN/A
11:50 pm
Wed, Apr 26
36 °FChilly.2 mph81%30.15 "HgN/A
11:20 pm37 °FChilly.1 mph81%30.15 "HgN/A
10:50 pm39 °FChilly.1 mph75%30.15 "HgN/A
10:20 pm43 °FQuite cool.1 mph66%30.15 "HgN/A
9:50 pm41 °FQuite cool.2 mph70%30.15 "HgN/A
8:50 pm46 °FCool.7 mph50%30.12 "HgN/A
8:20 pm46 °FCool.9 mph50%30.12 "HgN/A
7:50 pm46 °FCool.10 mph46%30.12 "HgN/A
6:50 pm46 °FPartly sunny.12 mph50%30.12 "HgN/A
6:20 pm46 °FLight rain. Partly sunny.13 mph50%30.12 "HgN/A
5:50 pm48 °FCool.14 mph43%30.09 "HgN/A
5:20 pm50 °FCool.13 mph43%30.09 "HgN/A
4:50 pm50 °FCool.14 mph43%30.09 "HgN/A
4:20 pm48 °FCool.15 mph43%30.12 "HgN/A
3:50 pm50 °FCool.10 mph37%30.12 "HgN/A
3:20 pm50 °FCool.12 mph37%30.12 "HgN/A
2:50 pm48 °FCool.14 mph37%30.12 "HgN/A
2:20 pm48 °FCool.10 mph40%30.12 "HgN/A
1:50 pm48 °FCool.12 mph43%30.12 "HgN/A
1:20 pm46 °FCool.10 mph46%30.12 "HgN/A
12:50 pm46 °FPartly sunny.9 mph46%30.12 "HgN/A
12:20 pm46 °FPartly sunny.9 mph50%30.12 "HgN/A
11:50 am45 °FBroken clouds.9 mph53%30.12 "HgN/A
11:20 am45 °FPartly sunny.7 mph53%30.12 "HgN/A
10:50 am45 °FPartly sunny.8 mph57%30.12 "HgN/A
10:20 am45 °FScattered clouds.8 mph57%30.12 "HgN/A
9:50 am43 °FQuite cool.9 mph61%30.12 "HgN/A
9:20 am41 °FPassing clouds.10 mph66%30.12 "HgN/A
8:50 am41 °FQuite cool.9 mph66%30.12 "HgN/A
8:20 am39 °FChilly.8 mph70%30.12 "HgN/A
7:50 am37 °FChilly.6 mph75%30.12 "HgN/A
7:20 am36 °FPassing clouds.7 mph81%30.12 "HgN/A
6:50 am36 °FChilly.8 mph81%30.09 "HgN/A
6:20 am36 °FChilly.9 mph81%30.09 "HgN/A
5:50 am36 °FChilly.8 mph81%30.09 "HgN/A
5:20 am36 °FChilly.8 mph81%30.09 "HgN/A
4:50 am36 °FChilly.7 mph81%30.09 "HgN/A
4:20 am36 °FPassing clouds.6 mph81%30.09 "HgN/A
Weather by CustomWeather, © 2017

See weather overviewHow to use our weather pages